Flag for Senegal Weather past 2 weeks in Thiès, Senegal

79 °F

Passing clouds.

Feels Like: 82 °F
Forecast: 80 / 94 °F
Wind: 6 mph from Northwest

Location: Dakar / Yoff

Current Time: Oct 4, 2015 at 4:17:45 AM

Latest Report: Oct 4, 2015 at 3:30 AM

Visibility: N/A

Pressure: 29.89 "Hg

Humidity: 89%

Dew point: 75 °F

Location of ThièsLocation

Historic Weather in Thiès — Graph


Thiès temperature yesterday

Maximum temperature yesterday: 91 °F (at 4:00 PM)
Minimum temperature yesterday: 82 °F (at 5:00 AM)
Average temperature yesterday: 86 °F

Past Weeks' High & Low Weather Summary

High91 °F (Sep 20, 3:00 PM)100% (Sep 21, 4:00 PM)30.01 "Hg (Sep 21, 4:00 PM)
Low75 °F (Sep 27, 3:00 AM)2% (Sep 23, 9:00 PM)28.24 "Hg (Sep 19, 6:30 AM)
Average83 °F85%29.87 "Hg
* Reported Sep 19 3:30 AM — Oct 4 3:00 AM, Thiès, Weather by CustomWeather, © 2015

Note: Actual official high and low records may vary slightly from our data, if they occured in-between our weather recording intervals... More about our weather records


Thiès weather history for previous 24 hours

Time TempWeatherWind HumidityBarometerVisibility
3:00 AM
Sun, Oct 4
84 °FPartly cloudy.3 mph89%29.86 "HgN/A
2:30 AM84 °FPartly cloudy.6 mph89%29.89 "HgN/A
2:00 AM75 °FThunderstorms. Partly cloudy.10 mph94%29.92 "Hg6 mi
1:30 AM84 °FThunderstorms. Partly cloudy.8 mph89%29.95 "Hg4 mi
1:00 AM84 °FThunderstorms. Partly cloudy.12 mph89%29.98 "Hg2 mi
12:30 AMN/AStrong thunderstorms.21 mphN/A30.01 "Hg1 mi
12:00 AM84 °FPassing clouds.5 mph89%29.98 "Hg6 mi
11:30 PM
Sat, Oct 3
84 °FPassing clouds.5 mph89%29.98 "Hg6 mi
11:00 PM84 °FPassing clouds.6 mph89%29.95 "Hg6 mi
10:30 PM84 °FClear.6 mph89%29.92 "Hg6 mi
9:30 PM86 °FClear.6 mph84%29.89 "Hg10 mi
9:00 PM86 °FPassing clouds.6 mph84%29.89 "Hg5 mi
8:30 PM86 °FPassing clouds.6 mph84%29.89 "Hg4 mi
8:00 PM86 °FPassing clouds.7 mph84%29.89 "Hg4 mi
7:30 PM86 °FPassing clouds.8 mph84%29.86 "Hg4 mi
7:00 PM86 °FPassing clouds.8 mph84%29.86 "Hg4 mi
6:30 PM88 °FPartly sunny.8 mph79%29.83 "Hg4 mi
6:00 PM88 °FPartly sunny.9 mph79%29.83 "Hg4 mi
5:30 PM91 °FPartly sunny.5 mph71%29.86 "Hg4 mi
5:00 PM88 °FPartly sunny.5 mph79%29.89 "Hg4 mi
4:30 PM91 °FScattered clouds.6 mph71%29.89 "Hg4 mi
4:00 PM91 °FScattered clouds.5 mph80%29.86 "Hg4 mi
3:30 PM90 °FScattered clouds.5 mph79%29.86 "Hg4 mi
3:00 PM90 °FScattered clouds.7 mph79%29.83 "Hg4 mi
2:30 PM88 °FPartly sunny.3 mph79%29.83 "Hg4 mi
2:00 PM88 °FPartly sunny.3 mph79%29.86 "Hg4 mi
1:30 PM88 °FBroken clouds.8 mph79%29.86 "Hg4 mi
1:00 PM90 °FBroken clouds.7 mph75%29.86 "Hg5 mi
12:30 PM90 °FBroken clouds.5 mph75%29.89 "Hg5 mi
12:00 PM88 °FBroken clouds.3 mph79%29.92 "Hg4 mi
11:30 AM88 °FBroken clouds.3 mph79%29.92 "Hg4 mi
11:00 AM88 °FBroken clouds.3 mph84%29.92 "Hg4 mi
10:30 AM88 °FBroken clouds.3 mph84%29.92 "Hg4 mi
10:00 AM86 °FBroken clouds.3 mph84%29.92 "Hg4 mi
9:30 AM86 °FBroken clouds.3 mph84%29.92 "Hg4 mi
9:00 AM84 °FClear.2 mph89%29.89 "Hg4 mi
8:30 AM82 °FClear.2 mph94%29.89 "Hg4 mi
8:00 AM82 °FClear.2 mph94%29.86 "Hg4 mi
7:30 AM82 °FClear.1 mph94%29.86 "Hg4 mi
7:00 AM82 °FClear.No wind94%29.86 "Hg4 mi
6:30 AM82 °FClear.No wind94%29.83 "Hg4 mi
6:00 AM82 °FClear.No wind94%29.83 "Hg4 mi
5:30 AM82 °FClear.No wind94%29.83 "Hg4 mi
5:00 AM82 °FClear.1 mph94%29.83 "Hg4 mi
4:30 AM84 °FClear.No wind94%29.83 "Hg4 mi
4:00 AM84 °FClear.2 mph94%29.83 "Hg4 mi
Weather by CustomWeather, © 2015

See weather overviewHow to use our weather pages